BMCB-26 Weather Reports


time (UTC)temp
F
wind
direction
speed
knots
gust
knots
rain 1hr
in
rain 24hr
in
rain mn
in
humidity
%
barometer
mb
20260503053944 57 0 0.0 0.0 0.00 0.02 0.00 88 1009.8
20260503052944 56 0 0.0 0.0 0.00 0.02 0.00 90 1009.9
20260503050946 54 0 0.0 0.0 0.00 0.02 0.00 96 1009.9
20260503044941 53 0 0.0 0.0 0.00 0.02 0.00 97 1009.9
20260503043944 53 0 0.0 0.0 0.00 0.02 0.00 97 1010.0
20260503041941 53 0 0.0 0.0 0.00 0.02 0.00 97 1010.1
20260503035947 53 0 0.0 0.0 0.00 0.02 0.00 97 1010.3
20260503034942 52 0 0.0 0.0 0.00 0.02 0.00 97 1010.3
20260503033947 52 0 0.0 0.0 0.00 0.02 0.00 97 1010.3
20260503025945 53 0 0.0 0.0 0.00 0.02 0.00 96 1010.3
20260503024946 53 0 0.0 0.0 0.00 0.02 0.00 97 1010.4
20260503014945 53 0 0.0 0.0 0.00 0.02 0.00 96 1010.8
20260503013943 53 0 0.0 0.0 0.00 0.02 0.00 96 1010.8
20260503012948 53 0 0.0 0.0 0.00 0.02 0.00 96 1010.8
20260503010948 53 0 0.0 0.0 0.00 0.02 0.00 96 1011.0
20260503005945 53 0 0.0 0.0 0.00 0.02 0.00 96 1011.1
20260503003942 54 0 0.0 0.0 0.00 0.02 0.00 96 1011.2
20260503001942 54 0 0.0 0.0 0.00 0.02 0.00 95 1011.3
20260503000943 54 0 0.0 0.0 0.00 0.02 0.00 94 1011.4
20260502235947 55 0 0.0 0.0 0.00 0.02 0.00 93 1011.4
20260502234945 55 0 0.0 0.0 0.00 0.02 0.00 93 1011.5
20260502233947 56 0 0.0 0.0 0.00 0.02 0.00 92 1011.5
20260502232947 57 0 0.0 0.0 0.00 0.02 0.00 91 1011.4
20260502230945 59 0 0.0 0.0 0.00 0.02 0.00 87 1011.5
20260502223947 60 0 0.0 0.0 0.00 0.02 0.00 84 1011.5
20260502222945 60 0 0.0 0.0 0.00 0.02 0.00 83 1011.5
20260502215944 57 0 0.0 0.0 0.00 0.02 0.02 91 1011.6
20260502212950 58 0 0.0 0.0 0.00 0.02 0.02 90 1011.8
20260502204950 57 0 0.0 0.0 0.00 0.02 0.02 92 1011.9
20260502202946 57 0 0.0 0.0 0.00 0.02 0.02 90 1012.0
20260502201949 58 0 0.0 0.0 0.00 0.02 0.02 90 1011.9
20260502200952 58 0 0.0 0.0 0.02 0.02 0.02 89 1012.0
20260502194945 58 0 0.0 0.0 0.02 0.02 0.02 87 1012.1
20260502185945 61 0 0.0 0.0 0.02 0.02 0.02 85 1012.2
20260502162951 74 0 0.0 0.0 0.00 0.00 0.00 52 1011.8
20260502161945 75 0 0.0 0.0 0.00 0.00 0.00 52 1011.9
20260502150951 74 0 0.0 0.0 0.00 0.00 0.00 53 1012.8
20260502121948 72 0 0.0 0.0 0.00 0.00 0.00 57 1015.3
20260502114946 71 0 0.0 0.0 0.00 0.00 0.00 60 1015.7
20260502103952 71 0 0.0 0.0 0.00 0.00 0.00 62 1016.4
20260502102949 70 0 0.0 0.0 0.00 0.00 0.00 63 1016.5
20260502101946 70 0 0.0 0.0 0.00 0.00 0.00 64 1016.6
20260502090946 69 0 0.0 0.0 0.00 0.00 0.00 65 1016.9
20260502070950 58 0 0.0 0.0 0.00 0.00 0.00 78 1018.0
20260502065950 58 0 0.0 0.0 0.00 0.00 0.00 75 1018.1
20260502064947 58 0 0.0 0.0 0.00 0.00 0.00 77 1018.1
20260502061948 55 0 0.0 0.0 0.00 0.00 0.00 85 1018.2
20260502055947 53 0 0.0 0.0 0.00 0.00 0.00 87 1018.3